Location: Brompton
(51.4000°N, 0.5333°E)
Time: 05:40:25
(UTC+00:00)

USA 215 - Pass Details

Date: 03 October 2021
Orbit: 1093 x 1114 km, 123.0° (Epoch: 14 October)

Event Time Altitude Azimuth Distance (km) Brightness Sun altitude
Exits shadow 20:23:07 58° 149° (SSE) 1,268 3.2 -26.8°
Maximum altitude 20:24:27 75° 213° (SSW) 1,139 3.2 -27.0°
Drops below altitude 10° 20:31:01 10° 299° (WNW) 2,968 6.5 -27.9°
Sets 20:33:32 0° 301° (WNW) 3,931 7.4 -28.2°
